SCP
0 1 1 1 1 1 1 1 1 1 1 1 1 0 1 1 1 1 1 1 1 1 1 1 1 1 1 1 1 1 0 0 0 1 1 1 1 1 1 1 1 1 0
0 1 1 1 1 1 1 1 1 1 1 1 1 1 1 1 1 1 1 1 1 1 1 1 1 1 1 1 1 1 0 0 1 1 1 1 1 1 1 1 1 1 0
0 0 1 1 1 1 1 1 1 1 1 1 1 1 1 1 1 1 1 1 1 1 1 1 1 1 1 1 1 0 0 1 1 1 1 1 1 1 1 1 1 1 0
0 1 1 1 1 1 1 1 1 1 1 1 1 2 2 2 1 1 1 1 1 1 1 1 1 1 1 1 1 0 0 1 1 1 1 0 0 1 1 1 1 1 0
1 1 1 1 1 1 1 1 1 1 1 1 2 3 3 2 2 1 1 1 1 1 1 1 1 1 1 1 1 1 1 1 1 1 1 0 0 1 1 1 1 0 0
1 1 1 1 1 1 1 1 1 1 1 1 2 3 3 3 2 1 1 1 1 1 1 1 1 0 0 1 0 1 1 1 1 1 0 0 0 1 1 1 0 0 0
1 1 1 1 1 1 1 1 1 1 1 2 2 3 3 3 2 1 1 1 1 1 1 1 1 0 0 1 1 1 1 1 1 1 0 1 1 1 1 1 0 0 0
1 1 1 1 1 1 1 1 1 1 2 2 2 3 3 2 2 1 1 1 1 1 1 1 1 0 0 1 1 1 1 1 1 0 0 1 1 1 1 1 0 0 0
1 1 1 1 1 1 1 1 1 1 2 2 2 3 2 2 1 1 1 1 1 1 1 1 1 0 0 1 1 1 1 1 1 0 0 1 1 1 1 1 0 0 0
1 1 1 1 1 1 1 1 1 1 1 2 2 2 2 1 1 1 1 1 1 1 1 1 1 1 1 1 1 1 1 1 0 0 0 1 1 2 1 1 1 0 0
1 1 1 1 1 1 1 1 1 1 1 2 2 2 1 1 1 1 1 1 1 1 1 1 1 1 1 1 1 1 1 0 0 0 1 1 2 2 2 1 1 1 0
1 1 1 1 1 2 1 1 1 1 1 1 1 1 1 1 1 1 1 1 1 1 1 1 1 1 1 1 1 1 0 0 0 0 1 2 2 2 2 1 1 1 1
1 1 1 1 1 1 1 1 1 1 2 1 1 1 1 1 1 1 1 1 1 1 1 1 1 1 1 1 1 1 0 0 0 0 1 2 2 2 2 1 1 1 1
1 1 1 1 1 1 1 2 1 2 2 2 1 1 1 1 1 1 1 1 1 1 1 1 1 1 1 1 1 1 1 1 1 1 1 2 2 2 1 1 1 1 1
1 1 1 1 1 1 2 2 2 1 2 2 2 1 1 1 1 1 1 1 1 1 1 1 1 1 1 1 1 1 1 1 1 1 1 1 2 2 1 1 1 1 1
1 1 2 2 2 2 2 2 2 1 2 2 2 1 1 1 1 1 1 2 2 1 1 2 2 2 2 1 1 1 2 2 2 2 2 2 2 2 2 1 1 1 1
1 2 2 2 3 3 2 2 2 1 1 2 2 2 2 2 2 1 2 2 2 1 2 2 2 2 2 2 2 2 2 2 3 3 3 2 2 2 2 1 1 1 1
2 2 2 2 3 4 3 2 1 1 1 1 2 2 2 2 2 2 2 2 2 2 2 2 3 3 2 2 2 2 2 2 2 3 3 2 2 2 2 1 1 1 1
3 2 2 2 3 4 4 3 2 1 2 2 2 2 1 1 1 1 2 2 2 2 3 3 3 4 4 3 3 3 2 2 2 2 2 1 1 1 2 1 1 1 1
3 3 2 2 2 3 3 3 2 2 2 2 2 1 1 1 1 2 2 2 3 3 4 4 4 4 5 5 4 3 3 2 1 1 1 1 1 1 1 1 1 1 1
3 3 3 3 2 3 3 3 3 3 3 3 2 2 1 1 1 2 2 3 3 4 4 5 6 5 5 5 5 5 3 2 1 1 1 2 1 1 1 1 1 1 1
4 4 4 3 3 3 3 3 3 3 4 3 3 2 2 2 1 2 2 3 4 4 5 7 7 6 5 5 5 5 4 3 2 1 1 2 1 1 2 1 1 1 1
5 5 4 4 4 4 4 4 3 3 3 4 4 3 3 2 2 2 2 3 4 4 5 6 7 6 5 4 5 5 5 5 4 2 2 1 1 1 1 1 1 1 1
7 7 6 6 7 6 6 5 4 3 3 4 4 3 3 3 3 3 3 3 4 4 4 5 5 5 5 4 4 5 5 5 4 2 1 1 1 1 1 1 1 1 1
7 8 9 9 10 9 8 7 5 4 4 4 4 4 4 3 3 3 4 4 3 4 4 4 5 5 5 5 4 4 4 3 2 2 1 1 1 1 1 1 1 1 1
6 8 10 11 11 11 10 8 7 5 4 4 4 4 4 4 4 4 4 4 3 3 4 4 4 4 5 5 5 4 3 2 1 1 1 1 1 1 1 1 2 1 1
Wind_Speed
7 8 10 11 11 10 10 10 10 10 10 9 9 10 10 11 11 12 13 13 14 14 14 14 14 14 15 15 15 15 15 15 15 15 15 15 14 13 12 12 12 11 14
9 10 12 11 11 10 10 10 10 10 9 9 9 9 10 10 11 12 13 13 14 14 14 14 14 14 14 14 14 14 14 14 13 14 15 14 13 12 11 11 12 10 14
10 11 11 10 10 10 10 10 10 9 9 9 10 10 10 11 11 12 12 13 13 14 14 14 14 14 14 13 13 12 12 12 12 13 12 9 10 12 12 13 14 13 13
11 11 11 11 11 10 10 9 9 9 10 10 11 12 12 12 12 12 13 13 13 14 14 14 14 13 13 12 11 11 10 10 10 10 6 7 8 12 12 12 12 13 12
12 12 11 12 11 11 10 10 10 10 10 10 12 12 12 12 12 12 13 13 13 14 14 14 14 13 12 11 9 8 8 8 8 6 4 7 7 12 12 11 11 12 11
13 12 12 11 11 11 10 10 11 11 10 11 12 12 13 12 12 13 13 13 13 13 13 13 13 12 11 10 8 7 6 6 4 4 5 8 8 11 12 11 11 11 10
13 13 12 12 11 11 11 12 12 12 12 12 12 13 13 13 12 12 12 13 13 13 12 12 12 11 10 9 7 6 5 4 3 4 5 8 9 12 12 11 11 11 11
13 13 12 12 12 11 11 12 12 12 12 12 12 13 13 12 11 11 12 12 12 12 12 11 11 10 9 8 6 4 3 2 4 6 8 8 11 13 12 11 10 10 10
12 13 11 11 10 11 11 12 11 11 11 11 12 12 12 12 11 11 11 11 11 11 11 11 10 9 8 6 4 3 2 2 1 4 8 7 12 13 12 11 11 10 10
10 10 10 11 10 9 10 11 11 10 10 10 10 11 11 11 11 11 10 10 10 10 10 10 10 9 8 7 5 4 2 1 1 5 5 8 13 13 12 11 11 10 10
9 8 9 10 9 8 10 10 9 9 8 8 8 9 8 5 7 7 10 10 9 9 9 9 8 7 6 6 6 4 2 1 3 5 5 10 12 12 12 11 10 9 9
7 7 8 8 7 6 7 7 5 6 6 4 4 5 4 3 4 7 9 9 8 8 7 7 7 6 5 4 5 4 2 2 4 5 6 12 12 12 11 10 9 9 8
7 7 8 8 6 6 4 4 3 3 4 4 5 4 3 4 4 4 4 4 4 5 4 5 5 3 3 2 3 3 2 2 4 5 7 11 11 11 11 10 9 8 8
6 7 8 9 7 6 5 3 3 3 3 3 4 4 3 2 2 2 2 3 2 2 2 2 2 2 2 2 3 3 2 3 4 5 6 10 10 9 9 8 8 7 6
7 8 9 8 7 6 4 2 4 3 4 4 3 3 3 3 3 3 2 1 1 2 2 2 1 2 2 3 2 2 3 4 5 4 5 9 9 8 8 7 7 6 6
7 8 8 8 7 5 3 2 2 3 3 4 3 4 3 3 2 2 2 1 1 2 2 2 2 2 2 2 2 2 3 4 4 5 5 6 9 8 7 6 6 5 6
8 7 7 8 7 5 3 2 2 2 3 4 3 3 3 3 3 2 2 1 1 1 2 2 2 2 2 2 3 3 3 3 3 4 5 4 5 6 7 6 6 5 5
9 7 5 6 8 6 3 1 2 3 3 3 2 3 3 3 2 1 2 2 1 1 2 2 1 2 2 2 2 2 3 3 3 3 4 4 4 4 5 6 5 5 5
8 7 5 6 6 6 4 2 3 2 2 2 2 2 2 2 2 1 1 2 1 1 1 1 2 2 2 2 2 3 2 2 3 3 4 4 4 4 4 5 6 5 5
9 7 6 6 5 4 3 3 2 2 2 2 2 2 2 1 2 1 1 1 1 1 1 2 2 2 1 2 2 3 2 2 2 2 3 3 3 4 4 4 3 3 4
10 8 7 6 5 3 2 2 2 2 2 2 2 3 2 1 1 1 2 1 1 1 2 2 2 1 1 2 2 2 2 2 2 2 3 3 3 3 4 4 3 2 2
10 9 8 6 6 5 3 2 2 2 2 2 2 2 2 2 1 2 2 1 1 1 1 2 2 1 1 1 2 2 1 2 2 2 2 2 3 2 3 4 3 3 2
11 10 8 8 7 6 5 3 2 2 1 2 3 2 2 2 2 2 2 1 1 1 1 1 1 2 1 0 1 1 1 1 1 1 2 2 2 2 2 3 4 3 2
11 10 8 8 7 6 5 4 4 3 2 2 2 2 3 2 2 2 2 1 1 1 1 1 2 0 1 1 0 1 1 2 2 2 1 1 2 2 2 2 3 3 4
12 11 9 8 7 6 5 4 3 2 3 3 3 3 3 2 2 2 2 1 1 1 1 0 1 0 0 0 1 1 1 1 2 2 2 2 1 1 2 2 3 3 3
11 11 11 9 7 6 5 4 3 2 2 3 3 3 3 2 2 2 2 1 1 1 1 1 0 1 0 0 1 0 0 1 1 1 2 3 2 1 2 2 3 3 3
Wind_Direction
88 92 87 79 75 74 75 77 77 79 83 87 92 97 99 97 98 99 100 100 102 103 104 105 105 107 107 108 110 112 114 111 109 111 111 109 110 111 110 115 120 112 115
100 101 93 83 79 75 75 78 79 80 82 86 94 99 102 102 102 101 102 102 104 106 107 105 106 107 108 109 112 114 117 117 118 120 119 116 115 115 111 108 106 116 119
102 101 94 85 82 78 75 77 78 79 82 86 91 96 100 103 104 104 103 104 105 107 108 107 107 108 109 110 113 117 122 126 129 133 134 125 120 116 112 111 112 118 119
99 96 89 89 85 80 78 77 78 80 84 89 94 97 99 101 104 104 103 105 106 107 108 109 109 109 109 111 115 121 128 133 139 147 148 129 124 120 118 117 118 119 121
100 98 94 92 87 84 82 79 79 84 88 90 98 100 99 100 103 104 105 107 108 108 109 110 110 110 110 112 115 124 135 141 151 157 124 109 108 126 125 125 125 125 125
106 102 102 98 92 87 84 82 85 86 90 94 100 103 101 99 101 104 106 108 109 108 108 110 110 111 111 113 118 129 144 155 172 147 123 116 117 130 131 132 131 130 130
111 109 111 104 98 93 89 89 90 88 92 95 98 103 103 99 101 104 107 109 110 109 110 112 114 113 114 118 122 128 143 163 173 141 116 113 123 133 134 133 134 135 135
111 110 114 110 105 101 99 95 93 92 94 97 98 103 105 102 102 105 108 110 111 112 114 117 119 120 121 124 131 138 151 187 133 117 109 113 130 135 135 134 136 139 138
109 115 123 123 117 113 110 104 101 97 98 102 102 104 107 108 108 110 112 113 113 114 118 122 124 127 129 132 143 163 183 214 108 116 120 123 133 136 138 139 139 139 142
107 114 125 125 128 131 123 116 113 109 107 111 111 114 116 115 116 119 117 115 117 120 125 129 134 139 146 154 168 188 222 274 144 104 109 127 137 139 142 144 144 146 149
102 109 115 118 127 130 124 123 130 123 119 119 121 124 128 129 125 124 116 122 124 128 133 139 146 155 160 172 186 201 226 208 119 102 105 129 137 141 145 147 148 152 155
107 111 105 102 103 108 111 125 136 128 122 124 110 119 130 110 105 111 120 130 135 138 144 156 164 169 186 181 179 196 203 159 108 106 114 131 135 139 143 144 147 156 164
111 106 105 98 93 95 98 113 104 106 113 115 107 105 108 107 112 114 129 134 146 160 168 157 174 186 183 162 145 161 168 129 101 104 118 131 134 138 142 147 155 164 173
111 106 102 100 90 71 67 83 100 99 107 103 107 108 105 102 100 108 119 133 150 152 147 138 155 145 134 120 115 119 111 101 106 111 127 132 133 138 145 154 160 167 178
115 106 98 95 90 81 63 35 79 83 93 98 103 105 106 102 93 92 79 84 111 124 129 122 109 106 96 86 86 100 96 101 104 108 121 135 136 140 149 155 160 171 171
123 114 111 112 109 103 95 68 68 84 95 100 100 101 102 103 100 100 101 92 95 94 97 110 119 111 102 102 91 81 94 97 107 119 123 127 130 134 138 145 151 160 164
126 120 124 123 119 115 115 117 107 97 100 97 100 107 105 108 117 127 136 143 137 142 135 135 118 108 129 119 102 91 91 95 107 118 131 133 135 137 139 139 140 145 159
128 126 129 124 123 123 119 101 81 88 89 96 110 110 110 114 138 150 154 142 139 140 135 134 130 117 96 100 102 97 101 108 115 125 125 133 135 136 136 137 136 133 141
132 135 129 116 125 133 138 130 115 107 100 106 106 104 111 134 145 143 126 115 173 154 127 122 114 103 101 108 113 120 114 110 113 122 120 123 132 133 136 134 134 128 129
141 140 138 136 133 142 140 133 127 118 123 127 118 118 123 137 125 119 133 118 105 99 99 92 113 137 131 116 91 91 101 114 117 109 107 110 114 121 121 129 139 130 120
149 147 151 150 142 150 147 147 153 146 144 134 133 123 130 123 112 116 83 119 111 106 108 116 119 129 128 125 110 91 80 83 89 98 97 98 99 105 109 119 136 127 123
151 152 154 158 161 172 156 143 151 135 150 139 115 120 131 130 166 144 113 116 101 109 115 130 134 125 177 156 141 134 126 105 53 80 96 102 93 104 125 125 119 118 117
157 163 168 165 166 174 164 166 153 134 162 128 134 137 127 104 91 71 111 119 100 117 125 147 161 169 194 254 123 138 144 132 123 83 74 92 102 96 94 106 113 112 105
162 163 159 157 160 164 170 182 181 171 164 147 140 142 138 125 129 138 129 132 118 109 115 211 145 228 168 227 235 188 151 143 149 139 109 110 113 107 105 103 100 100 97
163 162 157 152 156 160 173 183 192 183 166 150 141 141 147 154 157 144 137 134 127 133 137 80 83 308 217 228 253 207 154 154 148 151 163 163 137 135 134 112 107 105 103
163 161 159 155 159 165 176 184 189 196 157 150 156 160 173 169 166 159 150 150 156 142 142 181 207 213 219 288 303 290 203 177 176 149 152 160 151 153 143 131 128 123 114